[[{"header":{"parameterUnit":"m.s-1","parameterCategory":1,"la1":30.2991,"la2":30.254,"lo1":-89.0895,"lo2":-89.0444,"dy":0.0017,"dx":0.0017,"nx":28,"ny":28,"refTime":"2025-02-07T09:00:00:Z","depth":0,"parameterNumber":2,"parameterNumberName":"U-component_of_WINDS"},"data":[0,0,0,0,0,0,0,0,0,0,0,0,0,0,0,0,0,0,0,0,0,0,0,0,0,0,0,0,0,0,0,0,0,0,0,0,0,0,0,0,0,0,0,0,0,0,0,0,0,0,0,0,0,0,0,0,0,0,-1.2351,-1.2352,0,-1.2385,-1.2386,-1.2386,-1.2372,-1.2371,-1.237,-1.2369,-1.2405,-1.2406,-1.2408,0,0,0,0,0,0,0,0,0,0,0,0,0,-1.2275,-1.2276,-1.2351,-1.2352,-1.2352,-1.2385,-1.2386,-1.2386,-1.2372,-1.2371,-1.237,-1.2369,-1.2404,-1.2406,-1.2408,0,0,0,0,0,0,0,0,0,0,0,0,0,-1.2308,-1.2277,-1.2351,-1.2349,-1.2349,-1.2385,-1.2386,-1.2386,-1.2372,-1.2371,-1.237,-1.2369,-1.2403,-1.2406,-1.2408,-1.2449,0,0,-1.2416,-1.2417,0,0,0,0,0,0,0,0,-1.2307,-1.2311,-1.2349,-1.2349,-1.2349,-1.2373,-1.2372,-1.2407,-1.2372,-1.2363,-1.2369,-1.2368,-1.2395,-1.2398,-1.2407,-1.245,-1.2452,-1.2416,-1.2418,-1.2419,-1.242,0,0,0,0,0,0,0,-1.2304,-1.231,-1.2365,-1.235,-1.235,-1.2347,-1.235,-1.2378,-1.2386,-1.2364,-1.2363,-1.2367,-1.2395,-1.2405,-1.2408,-1.2452,-1.2416,-1.2419,-1.242,-1.2421,-1.2531,-1.2532,0,0,0,0,0,0,-1.2302,-1.2308,-1.2364,-1.2366,-1.2325,-1.2349,-1.2353,-1.2367,-1.2385,-1.2387,-1.2368,-1.2367,-1.2401,-1.2405,-1.2409,-1.2458,-1.2419,-1.2421,-1.2423,-1.2529,-1.2531,-1.2533,0,0,0,0,0,0,-1.23,-1.2307,-1.2362,-1.2337,-1.2343,-1.2352,-1.2367,-1.2368,-1.2378,-1.2389,-1.239,-1.2377,-1.24,-1.2406,-1.2439,-1.2459,-1.2422,-1.2425,-1.2528,-1.253,-1.2532,-1.2555,0,0,0,0,0,0,-1.2298,-1.2306,-1.2322,-1.2337,-1.2345,-1.2391,-1.2369,-1.237,-1.2382,-1.238,-1.2397,-1.2399,-1.24,-1.2435,-1.2442,-1.2461,-1.2427,-1.2526,-1.2529,-1.2531,-1.2552,-1.2557,-1.2562,0,0,0,0,0,-1.2295,-1.2327,-1.2322,-1.2329,-1.2364,-1.2392,-1.2397,-1.2397,-1.2384,-1.2399,-1.2406,-1.2398,-1.2456,-1.2439,-1.2446,-1.2467,-1.2525,-1.2528,-1.2531,-1.255,-1.2556,-1.2561,0,0,0,0,0,0,-1.2313,-1.2328,-1.2324,-1.2361,-1.2376,-1.239,-1.2409,-1.2404,-1.2423,-1.242,-1.242,-1.2424,-1.2458,-1.2466,-1.2447,-1.2507,-1.2488,-1.2493,-1.25,-1.2506,-1.2511,-1.2508,-1.2429,0,0,0,0,0,-1.2321,-1.2343,-1.2355,-1.2387,-1.2395,-1.2401,-1.2413,-1.2413,-1.2428,-1.2434,-1.2443,-1.2458,-1.248,-1.2494,-1.2514,-1.2554,-1.2557,-1.2572,-1.2577,-1.258,-1.2584,-1.2606,-1.2612,-1.2543,-1.2543,-1.2543,0,0,-1.2338,-1.2349,-1.2363,-1.2391,-1.2402,-1.2424,-1.2406,-1.2431,-1.2447,-1.2437,-1.2469,-1.2477,-1.2494,-1.2531,-1.2547,-1.2538,-1.2604,-1.2584,-1.2587,-1.2589,-1.2609,-1.2616,-1.2622,-1.2545,-1.2544,-1.2544,0,0,-1.238,-1.2391,-1.2419,-1.243,-1.2448,-1.2452,-1.2459,-1.2474,-1.2479,-1.2511,-1.2504,-1.2525,-1.2562,-1.2574,-1.2585,-1.2634,-1.2627,-1.2641,-1.2665,-1.2686,-1.2691,-1.2696,-1.2713,-1.2719,-1.2644,-1.2645,-1.2645,0,-1.2399,-1.2433,-1.2433,-1.2459,-1.2471,-1.2464,-1.2492,-1.2503,-1.2526,-1.2535,-1.2525,-1.2572,-1.2583,-1.2622,-1.2634,-1.2644,-1.2651,-1.2638,-1.269,-1.2695,-1.27,-1.2716,-1.2722,-1.2646,-1.2646,-1.2646,-1.2646,0,-1.2455,-1.2478,-1.2499,-1.2521,-1.2536,-1.2563,-1.2568,-1.2583,-1.2582,-1.2587,-1.262,-1.2634,-1.2656,-1.2666,-1.2665,-1.2706,-1.27,-1.269,-1.2671,-1.2708,-1.2723,-1.2729,-1.2648,-1.2648,-1.2647,-1.2647,0,0,-1.2507,-1.2531,-1.2538,-1.2548,-1.2567,-1.2586,-1.2613,-1.2635,-1.2648,-1.2665,-1.2687,-1.272,-1.2711,-1.2724,-1.2724,-1.2743,-1.278,-1.2731,-1.2731,-1.2739,-1.2826,-1.2832,-1.2839,-1.2777,-1.2778,-1.2779,-1.2824,0,-1.255,-1.2596,-1.2599,-1.2641,-1.2663,-1.2657,-1.268,-1.2695,-1.2701,-1.2721,-1.2728,-1.275,-1.2738,-1.2745,-1.2764,-1.2772,-1.2798,-1.2769,-1.2797,-1.2798,-1.2791,-1.2847,-1.2854,-1.2896,-1.283,-1.2831,-1.2832,0,-1.2606,-1.2625,-1.2669,-1.2686,-1.2695,-1.2716,-1.2737,-1.2756,-1.2773,-1.2776,-1.2791,-1.2789,-1.2817,-1.2798,-1.2836,-1.2817,-1.2829,-1.2835,-1.2836,-1.2838,-1.2816,-1.2849,-1.2909,-1.2915,-1.2841,-1.2841,-1.284,0,-1.2639,-1.2675,-1.2706,-1.2716,-1.2736,-1.2751,-1.276,-1.2776,-1.2789,-1.2808,-1.2817,-1.2839,-1.2851,-1.2868,-1.2873,-1.2859,-1.2911,-1.2892,-1.2914,-1.2914,-1.2924,-1.2923,-1.2986,-1.2934,-1.2934,-1.2934,-1.2934,0,-1.2686,-1.2713,-1.2722,-1.274,-1.2771,-1.2774,-1.2804,-1.2813,-1.2827,-1.2848,-1.2844,-1.2864,-1.2869,-1.289,-1.2894,-1.2925,-1.293,-1.2934,-1.2934,-1.2933,-1.2933,-1.294,-1.2937,-1.2936,-1.2935,-1.2935,-1.2935,0,-1.2727,-1.2734,-1.2767,-1.2784,-1.2789,-1.2811,-1.2825,-1.2844,-1.2851,-1.2877,-1.2884,-1.2894,-1.2918,-1.2925,-1.2954,-1.2957,-1.2993,-1.2991,-1.2987,-1.2987,-1.3008,-1.3005,-1.3076,-1.3085,-1.3029,-1.3029,-1.303,0,-1.2756,-1.2777,-1.2796,-1.281,-1.282,-1.2842,-1.2856,-1.286,-1.2875,-1.2896,-1.2912,-1.2937,-1.2956,-1.2996,-1.3006,-1.3028,-1.3026,-1.305,-1.303,-1.3028,-1.3026,-1.3024,-1.3026,-1.3053,-1.3054,-1.3054,-1.3055,0,-1.2807,-1.2809,-1.2829,-1.2851,-1.2868,-1.2885,-1.2902,-1.2913,-1.292,-1.2937,-1.2962,-1.2977,-1.3007,-1.3031,-1.3055,-1.3064,-1.3061,-1.3061,-1.3067,-1.3066,-1.3062,-1.3064,-1.2996,-1.3059,-1.3059,-1.3058,-1.3058,-1.3058,-1.2842,-1.286,-1.2877,-1.2899,-1.2912,-1.2928,-1.2946,-1.2956,-1.2976,-1.3001,-1.3003,-1.303,-1.3047,-1.3078,-1.3089,-1.3111,-1.3104,-1.3113,-1.3115,-1.3116,-1.3118,-1.306,-1.3115,-1.3115,-1.3115,-1.3115,-1.3115,0,-1.2891,-1.2902,-1.2923,-1.2946,-1.2965,-1.296,-1.2979,-1.2994,-1.3018,-1.3034,-1.3054,-1.3083,-1.3106,-1.3119,-1.3142,-1.3157,-1.3156,-1.3163,-1.3161,-1.3164,-1.3123,-1.3115,-1.3164,-1.3164,-1.3164,-1.3164,-1.3164,-1.3164,-1.2919,-1.2949,-1.2954,-1.2991,-1.3002,-1.3028,-1.3039,-1.3054,-1.3067,-1.3099,-1.3119,-1.3127,-1.3142,-1.3167,-1.3189,-1.3192,-1.32,-1.3208,-1.321,-1.3172,-1.3167,-1.3162,-1.3154,-1.321,-1.321,-1.3249,-1.3249,-1.325]},{"header":{"parameterUnit":"m.s-1","parameterCategory":1,"la1":30.2991,"la2":30.254,"lo1":-89.0895,"lo2":-89.0444,"dy":0.0017,"dx":0.0017,"nx":28,"ny":28,"refTime":"2025-02-07T09:00:00:Z","depth":0,"parameterNumber":3,"parameterNumberName":"V-component_of_WINDS"},"data":[0,0,0,0,0,0,0,0,0,0,0,0,0,0,0,0,0,0,0,0,0,0,0,0,0,0,0,0,0,0,0,0,0,0,0,0,0,0,0,0,0,0,0,0,0,0,0,0,0,0,0,0,0,0,0,0,0,0,1.7748,1.7749,0,1.7813,1.7813,1.7814,1.7855,1.7855,1.7856,1.7856,1.792,1.7922,1.7923,0,0,0,0,0,0,0,0,0,0,0,0,0,1.7661,1.7663,1.7748,1.7749,1.775,1.7812,1.7813,1.7814,1.7855,1.7855,1.7856,1.7856,1.792,1.7921,1.7923,0,0,0,0,0,0,0,0,0,0,0,0,0,1.771,1.7663,1.7748,1.7778,1.7781,1.7812,1.7813,1.7814,1.7855,1.7855,1.7856,1.7856,1.7919,1.7921,1.7923,1.793,0,0,1.793,1.7931,0,0,0,0,0,0,0,0,1.7707,1.7713,1.7773,1.7776,1.778,1.7826,1.7806,1.7853,1.7855,1.7827,1.7856,1.7856,1.7889,1.7893,1.7904,1.7933,1.7935,1.793,1.7932,1.7933,1.7933,0,0,0,0,0,0,0,1.7704,1.771,1.7774,1.7774,1.7778,1.7788,1.7795,1.7815,1.7855,1.7829,1.7833,1.784,1.789,1.7902,1.7906,1.7936,1.793,1.7932,1.7934,1.7935,1.7975,1.7975,0,0,0,0,0,0,1.7696,1.7707,1.7772,1.7776,1.7744,1.7789,1.7798,1.7811,1.7855,1.7862,1.7839,1.7841,1.7898,1.7904,1.7909,1.792,1.7933,1.7935,1.7936,1.7975,1.7975,1.7975,0,0,0,0,0,0,1.7694,1.7701,1.7769,1.7742,1.7752,1.7791,1.7805,1.7812,1.7824,1.7862,1.7869,1.7844,1.7899,1.7906,1.7925,1.7923,1.7936,1.7938,1.7975,1.7975,1.7975,1.7942,0,0,0,0,0,0,1.7691,1.77,1.7702,1.7742,1.7753,1.7784,1.7805,1.7813,1.7828,1.7831,1.7869,1.7875,1.79,1.7921,1.7927,1.7926,1.7939,1.7976,1.7975,1.7975,1.7944,1.7941,1.7938,0,0,0,0,0,1.7688,1.769,1.7702,1.771,1.7757,1.7784,1.779,1.7818,1.7827,1.7831,1.7856,1.7874,1.7922,1.7923,1.793,1.793,1.7976,1.7975,1.7975,1.7945,1.7941,1.7938,0,0,0,0,0,0,1.7648,1.7696,1.771,1.7725,1.775,1.7791,1.7795,1.7814,1.7836,1.7838,1.7872,1.788,1.7896,1.7915,1.7915,1.7939,1.7951,1.7952,1.7926,1.7923,1.7921,1.7916,1.7941,0,0,0,0,0,1.7641,1.7659,1.77,1.7709,1.7721,1.7756,1.7769,1.7789,1.7816,1.7826,1.7853,1.7878,1.7899,1.7912,1.7933,1.7947,1.7956,1.795,1.7947,1.7945,1.7945,1.7955,1.7954,1.7973,1.7973,1.7973,0,0,1.7627,1.7655,1.7664,1.7702,1.7724,1.7742,1.7765,1.7782,1.7796,1.7829,1.7849,1.7869,1.79,1.7916,1.7925,1.7932,1.7942,1.7944,1.7942,1.7944,1.7955,1.7953,1.7951,1.7972,1.7972,1.7972,0,0,1.7611,1.7634,1.7645,1.7667,1.77,1.7723,1.7726,1.7764,1.7779,1.78,1.7826,1.7843,1.7878,1.7899,1.7915,1.7909,1.7927,1.7915,1.7901,1.791,1.7909,1.7908,1.7906,1.7906,1.7915,1.7915,1.7915,0,1.7589,1.7617,1.7648,1.7665,1.7682,1.7713,1.7726,1.7745,1.7783,1.7794,1.7801,1.7848,1.787,1.7893,1.7892,1.7903,1.7908,1.791,1.7906,1.7906,1.7905,1.7904,1.7904,1.7913,1.7913,1.7913,1.7914,0,1.759,1.7609,1.7614,1.7651,1.7668,1.7682,1.7716,1.773,1.7749,1.7771,1.7793,1.7822,1.785,1.7857,1.7875,1.7883,1.7887,1.79,1.7913,1.7901,1.7901,1.7901,1.7911,1.7911,1.7912,1.7912,0,0,1.7549,1.7605,1.7606,1.7625,1.7664,1.768,1.7696,1.7725,1.7736,1.7762,1.7777,1.7807,1.782,1.7837,1.7858,1.7866,1.7862,1.7879,1.788,1.7876,1.7874,1.7864,1.7863,1.7874,1.7874,1.7874,1.7871,0,1.754,1.7571,1.76,1.7621,1.764,1.7671,1.7686,1.7712,1.7734,1.7753,1.7777,1.7799,1.7814,1.7825,1.7834,1.786,1.7862,1.7861,1.7889,1.7889,1.7881,1.7863,1.7852,1.7848,1.7871,1.7871,1.7871,0,1.7532,1.7558,1.7581,1.762,1.7629,1.7642,1.7671,1.7689,1.772,1.7736,1.7756,1.7779,1.7798,1.7809,1.7837,1.7835,1.7849,1.7863,1.7864,1.7868,1.788,1.7867,1.7848,1.7847,1.7872,1.7872,1.7872,0,1.7502,1.7542,1.7561,1.7576,1.7622,1.763,1.765,1.7681,1.7697,1.7723,1.7734,1.7761,1.7776,1.7797,1.7827,1.7832,1.7852,1.7865,1.7866,1.7865,1.7869,1.7868,1.7852,1.7876,1.7876,1.7876,1.7876,0,1.7488,1.7501,1.7549,1.756,1.7576,1.761,1.7625,1.7648,1.7675,1.7693,1.7721,1.7736,1.7774,1.7795,1.7818,1.7838,1.7844,1.7858,1.7864,1.7856,1.7854,1.7865,1.7866,1.7876,1.7876,1.7876,1.7876,0,1.7457,1.7489,1.7513,1.7555,1.7566,1.7576,1.7613,1.7626,1.765,1.7672,1.7679,1.7717,1.7742,1.7774,1.7809,1.7825,1.7843,1.7852,1.7833,1.7836,1.7836,1.7836,1.7826,1.7827,1.785,1.7849,1.7849,0,1.7447,1.7458,1.7502,1.7516,1.7535,1.7557,1.7574,1.7608,1.7625,1.7662,1.767,1.7698,1.7722,1.7762,1.7792,1.782,1.783,1.7825,1.7834,1.7826,1.7831,1.7831,1.7832,1.7823,1.7822,1.7822,1.7822,0,1.7425,1.7441,1.7465,1.7494,1.7514,1.7539,1.7565,1.7575,1.7614,1.7632,1.7659,1.7677,1.7714,1.7742,1.7774,1.7794,1.7815,1.7819,1.782,1.7812,1.7801,1.7808,1.7827,1.7819,1.7819,1.7819,1.7819,1.7819,1.7405,1.7417,1.745,1.7476,1.75,1.7524,1.7539,1.7565,1.7589,1.7622,1.7641,1.7667,1.7699,1.7745,1.7764,1.7786,1.7793,1.7796,1.7796,1.7797,1.7795,1.7797,1.7792,1.7792,1.7792,1.7792,1.7792,0,1.7386,1.7409,1.7433,1.7469,1.749,1.7508,1.7538,1.7554,1.7577,1.7606,1.763,1.7661,1.7689,1.7722,1.7752,1.7763,1.7773,1.777,1.7769,1.7774,1.7786,1.7782,1.7761,1.7761,1.7761,1.7761,1.7761,1.7761,1.7378,1.74,1.742,1.7454,1.7477,1.7504,1.752,1.7543,1.7566,1.76,1.7624,1.7646,1.7676,1.7709,1.7735,1.7745,1.7755,1.7748,1.776,1.777,1.7773,1.7776,1.7772,1.775,1.775,1.7747,1.7747,1.7747]}]]